EW7665 Weather Reports


Display with metric or nautical units.
time (UTC)temp
F
wind
direction
speed
MPH
gust
MPH
rain 1hr
in
rain 24hr
in
rain mn
in
humidity
%
barometer
mb
20260504201556 85 238 1.0 2.0 0.00 0.00 0.00 25 1001.6
20260504200053 85 127 1.0 2.0 0.00 0.00 0.00 25 1001.6
20260504194601 86 288 3.0 7.0 0.00 0.00 0.00 25 1001.8
20260504193050 86 244 3.0 3.0 0.00 0.00 0.00 25 1001.9
20260504191610 85 227 1.0 4.0 0.00 0.00 0.00 25 1001.8
20260504190048 85 223 4.0 4.0 0.00 0.00 0.00 29 1001.9
20260504184556 84 296 1.0 2.0 0.00 0.00 0.00 29 1001.9
20260504183049 84 293 2.0 3.0 0.00 0.00 0.00 29 1002.0
20260504181552 82 279 3.0 3.0 0.00 0.00 0.00 32 1001.9
20260504180049 82 207 2.0 4.0 0.00 0.00 0.00 32 1001.9
20260504174551 82 269 2.0 3.0 0.00 0.00 0.00 32 1002.1
20260504173055 81 238 1.0 4.0 0.00 0.00 0.00 42 1002.1
20260504171548 79 244 0.0 4.0 0.00 0.00 0.00 42 1002.2
20260504140104 67 267 8.0 9.0 0.00 0.00 0.00 60 1002.9
20260504081545 55 0 0.0 0.0 0.00 0.00 0.00 69 1003.9
20260504044548 63 0 0.0 1.0 0.00 0.00 0.00 63 1006.0
20260504043105 63 74 0.0 1.0 0.00 0.00 0.00 60 1006.0
20260504041553 63 82 1.0 2.0 0.00 0.00 0.00 60 1006.0
20260504040055 64 0 0.0 0.0 0.00 0.00 0.00 60 1006.5
20260504034608 65 0 0.0 0.0 0.00 0.00 0.00 55 1006.9
20260504033057 67 80 1.0 2.0 0.00 0.00 0.00 55 1007.0
20260504031601 67 128 0.0 0.0 0.00 0.00 0.00 55 1007.0
20260504030113 69 75 0.0 0.0 0.00 0.00 0.00 48 1007.0
20260504024554 70 0 0.0 0.0 0.00 0.00 0.00 48 1007.0
20260504023051 70 84 0.0 0.0 0.00 0.00 0.00 48 1006.6
20260504021600 71 119 1.0 2.0 0.00 0.00 0.00 47 1006.2
20260504020051 70 0 0.0 0.0 0.00 0.00 0.00 47 1006.3
20260504014552 72 0 0.0 2.0 0.00 0.00 0.00 47 1006.1
20260504013115 72 78 0.0 1.0 0.00 0.00 0.00 42 1006.2
20260504011549 73 84 1.0 1.0 0.00 0.00 0.00 42 1006.2
20260504010051 75 80 1.0 1.0 0.00 0.00 0.00 42 1006.3
20260504004549 75 92 2.0 2.0 0.00 0.00 0.00 40 1006.4
20260504003047 76 78 2.0 3.0 0.00 0.00 0.00 40 1006.6
20260504001549 77 59 2.0 2.0 0.00 0.00 0.00 36 1006.8
20260504000129 79 80 2.0 2.0 0.00 0.00 0.00 36 1006.9
20260503234550 79 90 1.0 1.0 0.00 0.00 0.00 36 1007.0
20260503233051 79 75 0.0 2.0 0.00 0.00 0.00 28 1007.0
20260503231552 80 38 0.0 1.0 0.00 0.00 0.00 28 1007.2
20260503230054 81 89 3.0 3.0 0.00 0.00 0.00 28 1007.3
20260503224551 81 284 0.0 0.0 0.00 0.00 0.00 25 1007.4
20260503223053 82 0 0.0 1.0 0.00 0.00 0.00 25 1007.5
20260503221549 82 295 0.0 3.0 0.00 0.00 0.00 25 1007.7
20260503220051 82 53 2.0 5.0 0.00 0.00 0.00 26 1007.8
20260503214551 83 259 4.0 4.0 0.00 0.00 0.00 26 1008.0
20260503213051 83 190 0.0 3.0 0.00 0.00 0.00 26 1008.0
20260503211551 82 294 3.0 5.0 0.00 0.00 0.00 29 1008.3
20260503210050 82 71 1.0 6.0 0.00 0.00 0.00 29 1008.5
20260503204548 82 290 3.0 3.0 0.00 0.00 0.00 29 1008.7
20260503203052 81 281 3.0 4.0 0.00 0.00 0.00 32 1009.1